| time (UTC) | temp F | wind direction | speed MPH | gust MPH | rain 1hr in | rain 24hr in | rain mn in | humidity % | barometer mb |
| 20260507151541 | 54 | 296 | 0.0 | 0.0 | 0.00 | 0.00 | 0.00 | 90 | 1019.6 |
| 20260507150042 | 54 | 294 | 0.0 | 0.0 | 0.00 | 0.00 | 0.00 | 90 | 1019.8 |
| 20260507144544 | 54 | 301 | 0.0 | 0.0 | 0.00 | 0.00 | 0.00 | 90 | 1020.0 |
| 20260507143040 | 54 | 319 | 0.0 | 0.0 | 0.00 | 0.00 | 0.00 | 90 | 1020.0 |
| 20260507141535 | 53 | 275 | 0.0 | 0.0 | 0.00 | 0.00 | 0.00 | 91 | 1020.1 |
| 20260507140037 | 53 | 261 | 0.0 | 0.0 | 0.00 | 0.00 | 0.00 | 91 | 1020.2 |
| 20260507134534 | 53 | 297 | 0.0 | 0.0 | 0.00 | 0.00 | 0.00 | 91 | 1020.4 |
| 20260507133034 | 52 | 280 | 0.0 | 1.0 | 0.00 | 0.00 | 0.00 | 90 | 1020.6 |
| 20260507131536 | 52 | 261 | 0.0 | 1.0 | 0.00 | 0.00 | 0.00 | 90 | 1020.7 |
| 20260507130032 | 52 | 304 | 0.0 | 1.0 | 0.00 | 0.00 | 0.00 | 89 | 1021.0 |
| 20260507124532 | 52 | 267 | 0.0 | 2.0 | 0.00 | 0.00 | 0.00 | 89 | 1021.2 |
| 20260507123039 | 52 | 292 | 0.0 | 2.0 | 0.00 | 0.00 | 0.00 | 88 | 1021.5 |
| 20260507121532 | 52 | 251 | 2.0 | 5.0 | 0.00 | 0.00 | 0.00 | 88 | 1021.6 |
| 20260507120041 | 52 | 270 | 3.0 | 16.0 | 0.00 | 0.00 | 0.00 | 89 | 1021.6 |
| 20260507114530 | 52 | 294 | 5.0 | 13.0 | 0.00 | 0.00 | 0.00 | 90 | 1021.7 |
| 20260507113040 | 52 | 272 | 3.0 | 10.0 | 0.00 | 0.00 | 0.00 | 90 | 1021.6 |
| 20260507111531 | 52 | 269 | 2.0 | 9.0 | 0.00 | 0.00 | 0.00 | 89 | 1021.6 |
| 20260507110031 | 52 | 311 | 1.0 | 10.0 | 0.00 | 0.00 | 0.00 | 88 | 1021.5 |
| 20260507104531 | 52 | 284 | 2.0 | 7.0 | 0.00 | 0.00 | 0.00 | 87 | 1021.6 |
| 20260507103032 | 52 | 255 | 3.0 | 9.0 | 0.00 | 0.00 | 0.00 | 86 | 1021.9 |
| 20260507101529 | 52 | 247 | 2.0 | 13.0 | 0.00 | 0.00 | 0.00 | 85 | 1022.1 |
| 20260507100036 | 52 | 244 | 3.0 | 12.0 | 0.00 | 0.00 | 0.00 | 83 | 1022.2 |
| 20260507094528 | 52 | 249 | 4.0 | 12.0 | 0.00 | 0.00 | 0.00 | 83 | 1022.2 |
| 20260507093030 | 52 | 257 | 3.0 | 7.0 | 0.00 | 0.00 | 0.00 | 83 | 1021.8 |
| 20260507091528 | 51 | 267 | 2.0 | 6.0 | 0.00 | 0.00 | 0.00 | 85 | 1022.1 |
| 20260507090028 | 51 | 281 | 2.0 | 6.0 | 0.00 | 0.00 | 0.00 | 87 | 1022.0 |
| 20260507084528 | 50 | 260 | 2.0 | 5.0 | 0.00 | 0.00 | 0.00 | 88 | 1021.9 |
| 20260507083027 | 50 | 286 | 0.0 | 2.0 | 0.00 | 0.00 | 0.00 | 88 | 1021.8 |
| 20260507081533 | 51 | 261 | 0.0 | 2.0 | 0.00 | 0.00 | 0.00 | 87 | 1022.0 |
| 20260507080027 | 51 | 232 | 0.0 | 4.0 | 0.00 | 0.00 | 0.00 | 86 | 1021.7 |
| 20260507074532 | 51 | 199 | 1.0 | 5.0 | 0.00 | 0.00 | 0.00 | 85 | 1021.8 |
| 20260507073026 | 51 | 240 | 1.0 | 4.0 | 0.00 | 0.00 | 0.00 | 85 | 1021.7 |
| 20260507071532 | 51 | 273 | 1.0 | 8.0 | 0.00 | 0.00 | 0.00 | 84 | 1021.7 |
| 20260507070026 | 51 | 286 | 2.0 | 4.0 | 0.00 | 0.00 | 0.00 | 84 | 1021.5 |
| 20260507064527 | 51 | 258 | 1.0 | 4.0 | 0.00 | 0.00 | 0.00 | 83 | 1021.6 |
| 20260507063025 | 51 | 246 | 2.0 | 8.0 | 0.00 | 0.00 | 0.00 | 82 | 1021.7 |
| 20260507061532 | 51 | 265 | 0.0 | 5.0 | 0.00 | 0.00 | 0.00 | 82 | 1021.8 |
| 20260507060024 | 52 | 242 | 1.0 | 4.0 | 0.00 | 0.00 | 0.00 | 80 | 1021.9 |
| 20260507054524 | 53 | 242 | 2.0 | 6.0 | 0.00 | 0.00 | 0.00 | 78 | 1022.0 |
| 20260507053031 | 53 | 183 | 1.0 | 6.0 | 0.00 | 0.00 | 0.00 | 77 | 1022.0 |
| 20260507051524 | 53 | 252 | 1.0 | 5.0 | 0.00 | 0.00 | 0.00 | 76 | 1022.0 |
| 20260507050024 | 53 | 200 | 1.0 | 6.0 | 0.00 | 0.00 | 0.00 | 77 | 1021.8 |
| 20260507044524 | 53 | 196 | 1.0 | 8.0 | 0.00 | 0.00 | 0.00 | 75 | 1021.9 |
| 20260507043025 | 53 | 261 | 1.0 | 9.0 | 0.00 | 0.00 | 0.00 | 75 | 1021.8 |
| 20260507041523 | 53 | 212 | 3.0 | 7.0 | 0.00 | 0.00 | 0.00 | 79 | 1021.9 |
| 20260507040023 | 52 | 225 | 3.0 | 6.0 | 0.00 | 0.00 | 0.00 | 79 | 1021.9 |
| 20260507034532 | 52 | 239 | 2.0 | 5.0 | 0.00 | 0.00 | 0.00 | 80 | 1021.8 |
| 20260507033022 | 52 | 243 | 2.0 | 4.0 | 0.00 | 0.00 | 0.00 | 78 | 1022.0 |
| 20260507031522 | 53 | 186 | 1.0 | 6.0 | 0.00 | 0.00 | 0.00 | 74 | 1021.9 |
| 20260507030023 | 53 | 192 | 2.0 | 5.0 | 0.00 | 0.00 | 0.00 | 75 | 1021.9 |
| 20260507024521 | 53 | 178 | 3.0 | 6.0 | 0.00 | 0.00 | 0.00 | 77 | 1022.0 |
| 20260507023020 | 52 | 190 | 1.0 | 7.0 | 0.00 | 0.00 | 0.00 | 78 | 1022.1 |
| 20260507021520 | 52 | 239 | 2.0 | 6.0 | 0.00 | 0.00 | 0.00 | 77 | 1022.3 |
| 20260507020020 | 54 | 191 | 4.0 | 13.0 | 0.00 | 0.00 | 0.00 | 68 | 1022.4 |
| 20260507014521 | 54 | 252 | 4.0 | 11.0 | 0.00 | 0.00 | 0.00 | 62 | 1021.9 |
| 20260507013016 | 54 | 236 | 3.0 | 11.0 | 0.00 | 0.00 | 0.00 | 64 | 1021.9 |
| 20260507011613 | 53 | 193 | 4.0 | 13.0 | 0.00 | 0.00 | 0.00 | 67 | 1022.0 |
| 20260507010026 | 52 | 230 | 2.0 | 7.0 | 0.00 | 0.00 | 0.00 | 75 | 1021.9 |
| 20260507004507 | 51 | 263 | 1.0 | 7.0 | 0.00 | 0.00 | 0.00 | 81 | 1021.8 |
| 20260507003005 | 50 | 248 | 2.0 | 9.0 | 0.00 | 0.00 | 0.00 | 82 | 1021.7 |
| 20260507001502 | 50 | 243 | 3.0 | 7.0 | 0.00 | 0.00 | 0.00 | 83 | 1021.5 |
| 20260507000002 | 48 | 231 | 2.0 | 7.0 | 0.00 | 0.00 | 0.00 | 88 | 1021.4 |
| 20260506234501 | 46 | 221 | 0.0 | 3.0 | 0.00 | 0.00 | 0.00 | 90 | 1021.3 |
| 20260506233002 | 46 | 204 | 0.0 | 1.0 | 0.00 | 0.00 | 0.00 | 91 | 1021.2 |
| 20260506231600 | 46 | 246 | 0.0 | 1.0 | 0.00 | 0.00 | 0.00 | 92 | 1021.4 |
| 20260506230101 | 45 | 173 | 0.0 | 1.0 | 0.00 | 0.00 | 0.00 | 91 | 1021.1 |
| 20260506224613 | 45 | 247 | 0.0 | 2.0 | 0.00 | 0.00 | 0.00 | 91 | 1021.0 |
| 20260506223102 | 46 | 270 | 0.0 | 2.0 | 0.00 | 0.00 | 0.00 | 92 | 1021.0 |
| 20260506221557 | 45 | 314 | 0.0 | 1.0 | 0.00 | 0.00 | 0.00 | 92 | 1020.7 |
| 20260506220108 | 45 | 323 | 0.0 | 2.0 | 0.00 | 0.00 | 0.00 | 92 | 1020.5 |
| 20260506214555 | 44 | 238 | 0.0 | 1.0 | 0.00 | 0.00 | 0.00 | 92 | 1020.3 |
| 20260506213053 | 44 | 236 | 0.0 | 1.0 | 0.00 | 0.00 | 0.00 | 91 | 1020.1 |
| 20260506211556 | 44 | 188 | 0.0 | 7.0 | 0.00 | 0.00 | 0.00 | 91 | 1019.9 |
| 20260506210050 | 44 | 227 | 0.0 | 3.0 | 0.00 | 0.00 | 0.00 | 91 | 1019.4 |
| 20260506204549 | 44 | 243 | 0.0 | 1.0 | 0.00 | 0.00 | 0.00 | 91 | 1019.0 |
| 20260506203056 | 44 | 281 | 0.0 | 3.0 | 0.00 | 0.00 | 0.00 | 91 | 1018.7 |
| 20260506201548 | 44 | 286 | 0.0 | 2.0 | 0.00 | 0.00 | 0.00 | 91 | 1018.4 |
| 20260506200047 | 44 | 254 | 1.0 | 4.0 | 0.00 | 0.00 | 0.00 | 91 | 1018.5 |
| 20260506194551 | 44 | 297 | 1.0 | 6.0 | 0.00 | 0.00 | 0.00 | 91 | 1018.6 |
| 20260506193051 | 43 | 248 | 1.0 | 3.0 | 0.00 | 0.00 | 0.00 | 90 | 1019.3 |
| 20260506191545 | 43 | 268 | 0.0 | 3.0 | 0.00 | 0.00 | 0.00 | 90 | 1018.1 |
| 20260506190045 | 43 | 331 | 1.0 | 4.0 | 0.00 | 0.00 | 0.00 | 90 | 1017.9 |
| 20260506184543 | 43 | 324 | 0.0 | 4.0 | 0.00 | 0.00 | 0.00 | 89 | 1017.9 |
| 20260506183043 | 44 | 261 | 2.0 | 5.0 | 0.00 | 0.00 | 0.00 | 89 | 1018.7 |
| 20260506181558 | 44 | 221 | 2.0 | 6.0 | 0.00 | 0.00 | 0.00 | 88 | 1018.9 |
| 20260506180041 | 43 | 266 | 1.0 | 3.0 | 0.00 | 0.00 | 0.00 | 88 | 1018.4 |
| 20260506174539 | 43 | 282 | 1.0 | 5.0 | 0.00 | 0.00 | 0.00 | 87 | 1017.9 |
| 20260506173047 | 44 | 242 | 1.0 | 7.0 | 0.00 | 0.00 | 0.00 | 85 | 1018.6 |
| 20260506171535 | 46 | 179 | 3.0 | 8.0 | 0.00 | 0.00 | 0.00 | 85 | 1019.3 |
| 20260506170030 | 46 | 232 | 3.0 | 6.0 | 0.00 | 0.00 | 0.00 | 81 | 1018.5 |
| 20260506164529 | 47 | 215 | 2.0 | 6.0 | 0.00 | 0.00 | 0.00 | 80 | 1018.5 |
| 20260506163028 | 47 | 272 | 0.0 | 3.0 | 0.00 | 0.00 | 0.00 | 78 | 1017.9 |
| 20260506161527 | 47 | 236 | 1.0 | 5.0 | 0.00 | 0.00 | 0.00 | 79 | 1017.8 |
| 20260506160037 | 47 | 210 | 2.0 | 5.0 | 0.00 | 0.00 | 0.00 | 81 | 1017.8 |
| 20260506154527 | 46 | 225 | 1.0 | 5.0 | 0.00 | 0.00 | 0.00 | 82 | 1017.9 |
| 20260506153025 | 46 | 281 | 1.0 | 5.0 | 0.00 | 0.00 | 0.00 | 82 | 1018.0 |